Location: Newark
(7.0858°N, 171.3717°E)
Time: 19:15:24
(UTC+00:00)

Vanguard 2 - Pass Details

Date: 05 December 2020
Orbit: 553 x 2937 km, 32.9° (Epoch: 17 January)

Event Time Altitude Azimuth Distance (km) Brightness Sun altitude
Rises 17:31:24 0° 242° (WSW) 6,731 12.0 -15.1°
Reaches altitude 10° 17:36:12 10° 244° (WSW) 5,579 11.5 -14.0°
Maximum altitude 17:52:16 68° 324° (NW) 2,249 9.7 -10.3°
Drops below altitude 10° 18:02:22 10° 46° (NE) 3,666 11.3 -8.0°
Sets 18:04:53 0° 50° (NE) 4,379 11.8 -7.4°
